Regional Weather Roundup
Issued by NWS Wakefield, VA

Home | Current Version | Previous Version | Graphics & Text | Print | Product List | Glossary On
Versions: 1 2 3 4 5 6 7 8 9 10 11 12 13 14 15 16 17 18 19 20 21 22 23 24 25 26 27 28 29 30 31 32 33 34 35 36 37 38 39 40 41 42 43 44 45 46 47 48 49 50
066
ASUS41 KAKQ 052315
RWRAKQ

REGIONAL WEATHER ROUNDUP
NATIONAL WEATHER SERVICE WAKEFIELD VA
600 PM EST MON DEC 05 2016

Note: "fair" indicates few or no clouds below 12,000 feet with no
significant weather and/or obstructions to visibility. * = Denotes
station may not report precipitation (e.g., rain,snow,etc.),
thunder or fog.

VAZ042-051-052>054-056-060000-
NORTHERN VIRGINIA

CITY           SKY/WX    TMP DP  RH WIND       PRES   REMARKS
WASH NATIONAL  MOCLDY    51  36  56 N6        30.06R
DULLES         MOCLDY    49  33  54 N7        30.06R
FORT BELVOIR   PTCLDY    47  36  65 CALM      30.06R
QUANTICO       PTCLDY    47  40  76 NW5       30.07R
FREDERICKSBRG* PTCLDY    44  42  93 CALM      30.05R
STAFFORD*      PTCLDY    42  39  91 CALM      30.10R
WARRENTON      PTCLDY    39  34  81 CALM      30.05R
CULPEPER*      MOCLDY    43  40  89 CALM      30.07R
MANASSAS*      NOT AVBL
LEESBURG*      PTCLDY    46  36  66 N6        30.07R
WINCHESTER     CLOUDY    45  32  61 N3        30.06R
FRONT ROYAL*   FAIR      46  32  57 CALM      30.05R
LURAY*         FAIR      48  32  53 N6        30.04R
$$

VAZ048-049-060>072-079>083-060000-
CENTRAL AND SOUTH CENTRAL VIRGINIA

CITY           SKY/WX    TMP DP  RH WIND       PRES   REMARKS
RICHMOND       CLOUDY    44  40  85 NE5       30.04S
CHESTERFIELD*  FAIR      45  28  53 NE3       30.05F
PETERSBURG*    PTCLDY    44  40  86 CALM      30.05R
HANOVER        CLEAR     41  39  93 CALM      30.06F
TAPPAHANNOCK*  CLEAR     43  42  95 SW3       30.06R
QUINTON*       FAIR      44  42  95 CALM      30.05R
CHARLOTTSVILLE PTCLDY    51  41  68 NE5       30.03R
GORDONSVILLE*  FAIR      44  42  94 CALM      30.04R
ORANGE*          N/A     43  43 100 CALM      30.07R
LOUISA*        CLOUDY    45  45 100 CALM      30.04R
BUMPASS*       FAIR      41  41 100 CALM      30.05R
FARMVILLE*     CLOUDY    49  44  81 CALM      30.02S
CREWE*         FAIR      44  44 100 CALM      30.03S
FORT PICKETT*  FAIR      44  40  88 CALM      30.04R
CHASE CITY*    FAIR      49  42  76 CALM      30.04R
CLARKSVILLE*   FAIR      46  45  93 CALM      30.03R
SOUTH HILL*    PTCLDY    46  44  93 CALM      30.10R
LAWRENCEVILLE* FAIR      46  44  90 CALM      30.04R
EMPORIA*       PTCLDY    43  43 100 CALM      30.06R
$$

VAZ088>098-060000-
SOUTHEAST VIRGINIA

CITY           SKY/WX    TMP DP  RH WIND       PRES   REMARKS
NORFOLK        CLEAR     49  42  77 N10       30.02F
VIRGINIA BEACH MOCLDY    47  40  76 N9        30.02F
NORFOLK NAVAL  MOCLDY    48  43  82 NE9       30.04F
WEST POINT*    PTCLDY    42  40  92 CALM      30.06S
SALUDA*        FAIR      43  43 100 CALM      30.05R
NEWPORT NEWS   CLOUDY    44  41  89 NE6       30.04S
LANGLEY AFB    CLEAR     46  44  93 N5        30.03F
FORT EUSTIS    PTCLDY    47  40  75 N6        30.01F
WILLIAMSBURG*  PTCLDY    46  43  87 CALM      30.04F
HR EXEC AP*    FAIR      43  36  75 NE3       30.02S
FRANKLIN*      PTCLDY    43  40  91 CALM      30.05R
US460-WAKEFLD  PTCLDY    43  42  97 CALM      30.05R
$$

VAZ020-022-025-037-045-060000-
WEST CENTRAL AND SOUTHWEST VIRGINIA

CITY           SKY/WX    TMP DP  RH WIND       PRES   REMARKS
STAUNTON*      CLOUDY    47  32  56 NE5       30.05R
WAYNESBORO*    FAIR      47  32  55 CALM      30.02R
HOT SPRINGS VA CLOUDY    41  28  60 SE3       30.00R
LYNCHBURG      CLOUDY    46  41  82 S3        30.05R
DANVILLE       CLOUDY    49  44  83 CALM      30.04R
SOUTH BOSTON*  FAIR      50  40  68 CALM      30.04R
MARTINSVILLE   CLOUDY    49  45  85 CALM      30.05R
ROANOKE        CLOUDY    51  36  56 NE5       30.04R
BLACKSBURG     CLOUDY    45  39  80 CALM      30.04S
DUBLIN*        CLOUDY    47  37  67 CALM      30.03R
MARION*        CLOUDY    48  39  69 E3        30.02S
HILLSVILLE*    CLOUDY    47  37  66 CALM      30.00S
RICHLANDS*     FAIR      46  20  36 NE8       29.98S
WISE*          CLOUDY    45  37  76 CALM      29.98S
ABINGDON*      DRIZZLE   50  42  73 NE3       29.98S
$$

MDZ021>025-VAZ099-100-060000-
SOUTHERN MARYLAND AND THE DELMARVA PENINSULA

CITY           SKY/WX    TMP DP  RH WIND       PRES   REMARKS
PATUXENT RIVER MOCLDY    43  40  89 SW3       30.05R
BAY BRIDGE APT PTCLDY    45  37  76 CALM      30.06R
LEONARDTOWN    CLEAR     41  39  93 CALM      30.07S
DOVER          CLOUDY    44  38  79 N3        30.04R
GEORGETOWN     CLOUDY    46  40  79 N6        30.05R
EASTON         MOCLDY    48  37  66 CALM      30.09R
CAMBRIDGE      CLEAR     43  37  81 N5        30.05R
SALISBURY      CLEAR     40  39  97 CALM      30.04R
OCEAN CITY     CLEAR     42  40  92 CALM      30.05R
WALLOPS ISLAND CLOUDY    43  41  93 CALM      30.05R
ACCOMACK*      PTCLDY    42  42  97 CALM      30.04S
$$

NCZ012>017-030>032-060000-
NORTH CENTRAL AND EASTERN NORTH CAROLINA

CITY           SKY/WX    TMP DP  RH WIND       PRES   REMARKS
ROANOKE RAPIDS FAIR      48  45  87 CALM      30.05R
RALEIGH        CLOUDY    53  42  66 NE3       30.03R
ELIZABETH CITY PTCLDY    49  41  74 N10       30.03R
AHOSKIE*       PTCLDY    46  43  88 N3        30.04S
EDENTON*       PTCLDY    51  42  71 CALM      30.04R
CURRITUCK*     PTCLDY    49  42  76 N7        30.03S
KILL DEVIL HLS PTCLDY    50  46  87 N10       30.01S
MANTEO         PTCLDY    49  45  84 NE9       30.03R
CAPE HATTERAS  CLOUDY    52  47  83 N10G16    30.02R
TARBORO*       NOT AVBL
GOLDSBORO      CLOUDY    53  49  87 NE6       30.01R
WASHINGTON     PTCLDY    50  45  83 NE3       30.03R
GREENVILLE     CLOUDY    52  46  82 NE5       30.05R
NEW BERN       CLEAR     53  47  79 E3        30.04R
WILMINGTON     CLEAR     54  51  90 NE8       30.00S
$$

VAZ048-060000-
ELSEWHERE

CITY           SKY/WX    TMP DP  RH WIND       PRES   REMARKS
HARRISBURG PA  PTCLDY    42  31  64 NW9       30.06R
BALTIMORE      MOCLDY    44  37  76 CALM      30.05S
ANNAPOLIS      PTCLDY    48  40  73 CALM      30.06R
ANDREWS AFB    PTCLDY    45  34  65 N3        30.04R
PHILADELPHIA   CLOUDY    48  33  56 NW6       30.06R
HENDERSON NC   CLOUDY    45  42  90 CALM      30.02S
GREENSBORO     CLOUDY    53  42  66 E6        30.02R
ROCKY MOUNT    MOCLDY    52  45  77 NE5       30.04R
$$

VAZ100-060000-
MARINE

STATION/POSITION TIME  TEMP    WIND        PRES    WAVE   SWELL
                       AIR SEA DIR/SP/G            HT/PER HT/PER
                 (UTC) (F)     (DEG/KT/KT) (MB)    (FT/S) (FT/S)
BRANDYWINE LGT   2236   48     360/ 16/ 18   N/A
CAPE MAY NJ      2236   47 48  340/ 10/ 13 1016.8R
LEWES DE         2236   49 49   10/ 15/ 17 1017.2R
OCEAN-CITY-INLET 2236   47 51   30/  4/  6 1017.4R
WACHAPREAGUE VA  2236   46 49  330/  4/  5 1017.1R
THOMAS POINT MD  2300   50 49   80/  3/  4   N/A
GOOSES REEF MD   2300   49 50   20/  2/  4 1018.4    0
COVE POINT MD    2236   48      20/  2/  2 1018.1R
SOLOMONS ISLAND  2236   48 51   CALM  /  2   N/A
BISHOPS HEAD MD  2236   47 47  330/  2/  3 1017.7R
PINEY POINT MD   2248           70/  2/  3   N/A
POTOMAC MD       2300   48 50   20/  2/  4 1016.7    0
CAMBRIDGE MD     2236   48 47  200/  1/  2 1016.9R
LEWISETTA VA     2236   48 49  100/  4/  5 1017.2S
RAPPAHANNOCK LGT 2248          330/  8/  9 1017.8S
STINGRAY PT      2300   49      50/  8/ 10 1018.0    1/ 2
YORK RVR RNG VA  2236   49      40/  7/  8 1016.9R
YORKTOWN VA      2236   50 52   50/  7/  7 1016.9R
JAMESTOWN VA     2300   49 52   20/  2/  4   N/A     0
DOMINION TERM VA 2236   49      40/  2/  4 1017.1F
KIPTOPEKE VA     2248      52   20/  5/  8   N/A
CHES BAY BRIDGE  2248   51 55   20/ 15/ 20 1016.8F
CAPE HENRY VA    2248   50      10/ 17/ 20   N/A
WILLOUBY STN VA  2248   49      20/ 10/ 10 1017.8F
S CRANEY ISL VA  2248   50      30/ 10/ 12 1016.6F
CAPE HENRY BUOY  2242      56                N/A     3/ 9
1ST LANDING BUOY 2300   50 54              1017.3    2/ 3
CAPE CHARLES BUO 2256      55                N/A     3/ 8
OFFSHORE WE BUOY 2251      57                N/A     4/ 7
64NM E OF VA BCH 2250   53 60   10/ 19/ 25 1015.4R   6/ 5   2/ 8
DUCK PIER NC     2248   52 54   10/ 14/ 19 1015.7R
44100 DUCK FRF   2235      56                N/A     5/ 5
OREGON INLET NC  2248           10/ 11/ 16   N/A
HATTERAS NC      2248   53 60   20/ 17/ 21 1016.2R
DIAMOND SHLS NC  2250   57 71   20/ 19/ 23 1016.1R   5/ 8   3/ 8
CAPE LOOKOUT NC  2300   56      30/ 15/ 16 1016.4R
$$




USA.gov is the U.S. government's official web portal to all federal, state and local government web resources and services.